Notices

What's New in latest Release from April 7th, 2021:

- Updated Glossary, including Speed of Maximum Gust, and Total Hourly Precipitation

- Updated national and regional climate services offices contacts and prices information

- Addition of station inventory lists for 1981-2010, 1971-2000, and 1961-1990 Normals.

If you haven't already, please take our survey and provide feedback about our website: https://eccc.sondage-survey.ca/f/LanguageSelection.aspx?s=442ca660-fcf1-47c0-95a9-59707d6fd709

Hourly Data Report for October 06, 2004

SHERBROOKE A
QUEBEC

45°26'00.000" N
71°41'00.000" W
241.40 m
7028124
71610
YSC

Download Data

Hourly Data (October 2004)
Hourly Data Report for October 6, 2004
TIME
LST
Temp Definition
°C
Dew Point Definition
°C
Rel Hum Definition
%
Precip. Amount Definition
mm

Wind Dir Definition
10's deg

Wind Spd Definition
km/h
Visibility Definition
km
Stn Press Definition
kPa
Hmdx Definition


Wind Chill Definition


Weather Definition


00:00 -3.8 -5.3 89     0 15.0 99.73      
01:00 -2.8 -4.4 89     0 15.0 99.72      
02:00 -1.9 -3.6 88   10 4 15.0 99.70   -3  
03:00 -1.8 -3.6 87   13 4 15.0 99.67   -3  
04:00 -2.1 -3.6 89     0 15.0 99.66      
05:00 -2.8 -4.6 87   12 4 15.0 99.65   -4  
06:00 -2.4 -3.9 89     0 15.0 99.61      
07:00 0.3 -1.1 90   13 4 24.1 99.61     Mostly Cloudy
08:00 3.2 0.8 84     0 24.1 99.60     Mainly Clear
09:00 8.1 1.3 62   21 11 24.1 99.56     Mainly Clear
10:00 10.7 2.7 58   24 20 24.1 99.50     Mainly Clear
11:00 11.7 3.2 56   26 22 24.1 99.45     Mostly Cloudy
12:00 11.5 3.0 56   24 15 24.1 99.40     Mostly Cloudy
13:00 11.7 2.4 53   23 17 24.1 99.39     Mostly Cloudy
14:00 13.5 2.6 48   23 22 24.1 99.35     Mainly Clear
15:00 14.1 2.4 45   25 20 24.1 99.33     Mostly Cloudy
16:00 13.7 2.4 46   24 20 24.1 99.34     Mostly Cloudy
17:00 12.5 2.9 52   25 13 15.0 99.37      
18:00 11.3 3.0 57   23 6 15.0 99.43      
19:00 10.5 3.3 61   21 4 15.0 99.48      
20:00 10.4 3.4 62     0 15.0 99.51      
21:00 9.8 3.6 65   23 4 15.0 99.55      
22:00 6.7 3.8 82   21 4 15.0 99.55      
23:00 9.0 4.7 74   22 4 15.0 99.56      

Notes on Data Quality.

Legend

  • E = Estimated
  • M = Missing
  • NA = Not Available*
  • [empty] = Indicates an unobserved value
Date modified: